DW6885 Weather Reports


Display with metric or nautical units.
time (UTC)temp
F
wind
direction
speed
MPH
gust
MPH
rain 1hr
in
rain 24hr
in
rain mn
in
humidity
%
barometer
mb
20160726160513 82 323 2.0 6.0 0.00 0.08 0.01 51 1008.4
20160726160215 81 65 2.0 8.0 0.00 0.08 0.01 53 1008.2
20160726155510 82 281 2.0 8.0 0.00 0.08 0.01 53 1008.3
20160726154514 82 339 1.0 8.0 0.00 0.08 0.01 53 1008.3
20160726153013 82 351 3.0 6.0 0.00 0.08 0.01 52 1008.3
20160726152510 82 306 1.0 7.0 0.00 0.08 0.01 56 1008.3
20160726151409 81 306 1.0 9.0 0.00 0.08 0.01 54 1008.2
20160726145921 80 348 2.0 11.0 0.00 0.08 0.01 53 1008.3
20160726144408 80 44 4.0 9.0 0.00 0.08 0.01 54 1008.2
20160726143509 80 41 0.0 6.0 0.00 0.08 0.01 58 1008.2
20160726142906 80 320 2.0 11.0 0.00 0.08 0.01 58 1008.2
20160726141512 80 21 2.0 6.0 0.01 0.08 0.01 63 1008.2
20160726141406 79 69 0.0 8.0 0.00 0.08 0.01 63 1008.2
20160726140512 79 84 2.0 7.0 0.01 0.08 0.01 62 1008.1
20160726135910 78 103 1.0 8.0 0.01 0.08 0.01 65 1008.2
20160726134513 78 138 2.0 8.0 0.01 0.08 0.01 69 1008.1
20160726134215 77 319 2.0 9.0 0.01 0.08 0.01 68 1008.1
20160726133509 78 18 2.0 8.0 0.01 0.08 0.01 69 1008.2
20160726132718 77 63 1.0 6.0 0.01 0.08 0.01 69 1008.2
20160726132510 77 60 2.0 6.0 0.01 0.08 0.01 70 1008.3
20160726131513 76 101 0.0 6.0 0.01 0.08 0.01 72 1008.3
20160726131214 75 329 2.0 13.0 0.01 0.08 0.01 71 1008.3
20160726125711 74 143 0.0 6.0 0.00 0.07 0.00 75 1008.3
20160726124512 74 248 1.0 5.0 0.00 0.07 0.00 77 1008.4
20160726124014 74 13 0.0 5.0 0.00 0.07 0.00 77 1008.4
20160726123509 74 5 1.0 3.0 0.00 0.07 0.00 79 1008.3
20160726121015 71 35 0.0 5.0 0.00 0.07 0.00 85 1008.4
20160726120510 71 96 0.0 5.0 0.00 0.07 0.00 87 1008.5
20160726115510 70 96 0.0 5.0 0.00 0.07 0.00 88 1008.4
20160726113914 68 202 0.0 4.0 0.00 0.07 0.00 93 1008.5
20160726113507 68 173 1.0 3.0 0.00 0.07 0.00 94 1008.5
20160726112507 67 145 0.0 2.0 0.00 0.07 0.00 96 1008.5
20160726112314 67 132 0.0 0.0 0.00 0.07 0.00 96 1008.6
20160726110807 66 132 0.0 0.0 0.00 0.07 0.00 97 1008.6
20160726110506 66 132 0.0 1.0 0.00 0.07 0.00 97 1008.6
20160726105312 65 17 0.0 0.0 0.00 0.07 0.00 96 1008.6
20160726103708 65 28 0.0 0.0 0.00 0.07 0.00 96 1008.4
20160726103509 66 28 0.0 0.0 0.00 0.07 0.00 96 1008.4
20160726102207 65 28 0.0 0.0 0.00 0.07 0.00 96 1008.3
20160726101512 66 28 0.0 0.0 0.00 0.07 0.00 96 1008.4
20160726100748 66 28 0.0 0.0 0.00 0.07 0.00 96 1008.2
20160726100510 66 28 0.0 0.0 0.00 0.07 0.00 96 1008.2
20160726095242 66 28 0.0 0.0 0.00 0.07 0.00 95 1008.0
20160726094513 67 28 0.0 0.0 0.00 0.07 0.00 95 1008.0
20160726093710 67 28 0.0 0.0 0.00 0.07 0.00 94 1007.9
20160726093510 67 28 0.0 0.0 0.00 0.07 0.00 94 1007.9
20160726092509 68 28 0.0 0.0 0.00 0.07 0.00 94 1007.8
20160726092017 68 28 0.0 0.0 0.00 0.07 0.00 94 1007.7
20160726091519 68 28 0.0 2.0 0.00 0.07 0.00 95 1007.7
20160726090517 68 104 0.0 3.0 0.00 0.07 0.00 94 1007.5
20160726090509 68 311 0.0 2.0 0.00 0.07 0.00 94 1007.5
20160726085507 68 130 0.0 6.0 0.00 0.07 0.00 94 1007.5
20160726085219 68 237 0.0 5.0 0.00 0.07 0.00 95 1007.5
20160726084507 68 193 1.0 6.0 0.00 0.07 0.00 95 1007.3
20160726083421 67 88 0.0 3.0 0.00 0.07 0.00 95 1007.3
20160726082507 68 148 0.0 1.0 0.00 0.07 0.00 95 1007.2
20160726081913 68 57 0.0 3.0 0.00 0.07 0.00 95 1007.2
20160726081507 68 289 0.0 3.0 0.00 0.07 0.00 95 1007.1
20160726080507 68 248 0.0 5.0 0.00 0.07 0.00 94 1007.0
20160726074909 68 101 0.0 4.0 0.00 0.07 0.00 94 1006.9
20160726074510 69 101 0.0 2.0 0.00 0.07 0.00 94 1006.9
20160726073408 68 147 0.0 3.0 0.00 0.07 0.00 94 1006.8
20160726072509 69 59 0.0 3.0 0.00 0.07 0.00 94 1006.8
20160726071905 68 336 0.0 3.0 0.00 0.07 0.00 94 1006.7
20160726071512 69 155 0.0 2.0 0.00 0.07 0.00 94 1006.8
20160726070219 68 132 0.0 3.0 0.00 0.07 0.00 95 1006.6
20160726065510 69 115 0.0 3.0 0.00 0.07 0.00 95 1006.8
20160726064713 69 286 0.0 3.0 0.00 0.07 0.00 95 1006.7
20160726063509 69 126 0.0 1.0 0.00 0.07 0.00 94 1006.8
20160726063219 69 126 0.0 1.0 0.00 0.07 0.00 94 1006.8
20160726061818 69 109 0.0 1.0 0.00 0.07 0.00 94 1006.8
20160726060514 70 103 0.0 2.0 0.00 0.07 0.00 93 1006.9
20160726060310 69 102 0.0 1.0 0.00 0.07 0.00 93 1006.9
20160726055513 70 102 0.0 2.0 0.00 0.07 0.00 93 1006.9
20160726054821 70 97 0.0 1.0 0.00 0.07 0.00 93 1007.0
20160726054512 70 96 0.0 2.0 0.00 0.07 0.00 93 1006.9
20160726053008 70 95 0.0 3.0 0.00 0.07 0.00 92 1007.0
20160726052513 71 338 0.0 3.0 0.00 0.07 0.00 92 1007.2
20160726051515 70 163 0.0 2.0 0.00 0.07 0.00 92 1007.3
20160726050310 71 306 0.0 3.0 0.00 0.07 0.00 91 1007.3
20160726045514 72 17 0.0 1.0 0.00 0.07 0.00 91 1007.3
20160726044521 72 17 0.0 1.0 0.00 0.07 0.00 90 1007.3
20160726044510 72 17 0.0 3.0 0.00 0.07 0.00 90 1007.4
20160726043512 73 17 0.0 3.0 0.00 0.07 0.00 90 1007.4
20160726042908 72 81 0.0 6.0 0.00 0.07 0.00 89 1007.3
20160726042511 73 169 1.0 3.0 0.00 0.07 0.00 89 1007.3
20160726041514 73 171 0.0 3.0 0.00 0.07 0.00 90 1007.4
20160726041511 72 179 0.0 6.0 0.00 0.07 0.00 90 1007.4
20160726035913 72 244 0.0 3.0 0.00 0.07 0.07 90 1007.4
20160726035509 73 218 0.0 6.0 0.00 0.07 0.07 90 1007.5
20160726034512 73 105 0.0 2.0 0.00 0.07 0.07 89 1007.5
20160726034413 73 105 0.0 3.0 0.00 0.07 0.07 89 1007.5
20160726032910 73 158 0.0 2.0 0.00 0.07 0.07 90 1007.6
20160726031512 73 13 1.0 3.0 0.00 0.07 0.07 90 1007.8
20160726031412 73 16 0.0 4.0 0.00 0.07 0.07 90 1007.8
20160726030510 73 327 0.0 2.0 0.00 0.07 0.07 90 1007.9
20160726025911 73 327 0.0 2.0 0.00 0.07 0.07 90 1007.9
20160726025510 73 327 0.0 2.0 0.00 0.07 0.07 89 1007.8
20160726024227 73 327 0.0 2.0 0.00 0.07 0.07 89 1007.9
20160726023513 74 322 0.0 2.0 0.00 0.07 0.07 89 1007.9
20160726022720 73 173 0.0 2.0 0.00 0.07 0.07 90 1007.9
20160726021220 73 53 0.0 1.0 0.00 0.07 0.07 92 1007.9
20160726020508 73 15 0.0 2.0 0.00 0.07 0.07 92 1007.8
20160726015719 72 13 0.0 1.0 0.00 0.07 0.07 94 1007.8
20160726015507 73 13 0.0 1.0 0.00 0.07 0.07 94 1007.8
20160726014211 72 13 0.0 0.0 0.00 0.07 0.07 94 1007.9
20160726013510 73 13 0.0 0.0 0.00 0.07 0.07 94 1007.9
20160726012516 73 13 0.0 0.0 0.00 0.07 0.07 94 1007.8
20160726011508 74 13 0.0 0.0 0.00 0.07 0.07 94 1007.5
20160726011008 73 13 0.0 2.0 0.00 0.07 0.07 95 1007.3
20160726005505 73 81 0.0 0.0 0.00 0.07 0.07 95 1007.5
20160726004512 74 81 0.0 2.0 0.00 0.07 0.07 95 1007.2
20160726004006 73 81 0.0 2.0 0.00 0.07 0.07 95 1007.4
20160726002509 74 306 0.0 0.0 0.00 0.07 0.07 94 1006.6
20160726002507 74 306 0.0 0.0 0.00 0.07 0.07 94 1006.7
20160726000908 74 306 0.0 0.0 0.00 0.07 0.07 94 1006.1
20160725235509 75 306 0.0 0.0 0.00 0.07 0.07 93 1006.2
20160725235310 74 306 0.0 0.0 0.00 0.07 0.07 93 1006.2
20160725233911 75 306 0.0 0.0 0.00 0.07 0.07 92 1006.4
20160725233510 76 306 0.0 0.0 0.00 0.07 0.07 91 1006.6
20160725232510 77 306 0.0 0.0 0.00 0.07 0.07 89 1006.7
20160725232308 77 306 0.0 1.0 0.00 0.07 0.07 88 1006.7
20160725230727 77 306 0.0 1.0 0.00 0.07 0.07 88 1007.0
20160725230510 78 306 0.0 1.0 0.00 0.07 0.07 88 1007.1
20160725225207 78 246 0.0 2.0 0.00 0.07 0.07 86 1007.2
20160725223717 78 126 0.0 6.0 0.00 0.07 0.07 82 1007.2
20160725223508 78 126 0.0 5.0 0.00 0.07 0.07 81 1007.2
20160725222224 78 205 0.0 4.0 0.00 0.07 0.07 82 1007.2
20160725220714 78 301 0.0 4.0 0.00 0.07 0.07 85 1007.2
20160725215510 79 157 0.0 2.0 0.00 0.07 0.07 85 1007.2
20160725215231 79 157 0.0 4.0 0.00 0.07 0.07 85 1007.1
20160725213718 79 259 0.0 3.0 0.00 0.07 0.07 86 1007.2
20160725213510 80 279 1.0 3.0 0.00 0.07 0.07 88 1007.3
20160725212510 80 349 0.0 2.0 0.00 0.07 0.07 87 1007.2
20160725212009 80 349 0.0 2.0 0.00 0.07 0.07 92 1007.1
20160725210710 78 349 0.0 0.0 0.00 0.07 0.07 94 1007.0
20160725210510 79 349 0.0 0.0 0.07 0.07 0.07 94 1007.0
20160725205509 79 349 0.0 1.0 0.07 0.07 0.07 94 1006.7
20160725205009 78 349 0.0 1.0 0.07 0.07 0.07 93 1006.8
20160725204513 79 349 0.0 1.0 0.07 0.07 0.07 93 1006.9
20160725203412 79 349 0.0 0.0 0.07 0.07 0.07 91 1007.0
20160725202509 79 349 0.0 0.0 0.07 0.07 0.07 89 1007.2
20160725201907 79 349 0.0 0.0 0.07 0.07 0.07 85 1007.3
20160725201512 81 349 0.0 3.0 0.07 0.07 0.07 82 1007.5
20160725200511 87 154 1.0 3.0 0.03 0.03 0.03 67 1008.2
20160725200306 87 150 0.0 3.0 0.00 0.00 0.00 66 1008.0
20160725195509 88 94 0.0 3.0 0.00 0.00 0.00 57 1007.9
20160725194904 88 169 0.0 2.0 0.00 0.00 0.00 58 1008.1
20160725194510 88 169 0.0 1.0 0.00 0.00 0.00 57 1008.2
20160725193510 88 169 0.0 3.0 0.00 0.00 0.00 57 1008.5
20160725193310 88 169 0.0 3.0 0.00 0.00 0.00 57 1008.5
20160725192510 88 99 1.0 3.0 0.00 0.00 0.00 56 1008.6
20160725191915 88 336 0.0 3.0 0.00 0.00 0.00 56 1008.6
20160725191509 88 336 0.0 3.0 0.00 0.00 0.00 55 1008.8
20160725190509 88 133 1.0 3.0 0.00 0.00 0.00 55 1008.9
20160725190307 88 75 0.0 3.0 0.00 0.00 0.00 55 1008.9
20160725185508 89 340 0.0 3.0 0.00 0.00 0.00 55 1009.1
20160725184713 89 30 1.0 6.0 0.00 0.00 0.00 53 1009.3
20160725184510 89 38 1.0 6.0 0.00 0.00 0.00 55 1009.3
20160725183509 90 142 2.0 6.0 0.00 0.01 0.00 52 1009.2
20160725183217 90 174 1.0 6.0 0.00 0.00 0.00 52 1009.2
20160725182509 90 51 1.0 6.0 0.00 0.01 0.00 53 1009.3
20160725181720 89 9 0.0 5.0 0.00 0.00 0.00 54 1009.4
20160725181510 90 199 2.0 6.0 0.00 0.01 0.00 52 1009.5
20160725180207 90 109 0.0 5.0 0.00 0.00 0.00 54 1009.4
20160725175905 90 144 0.0 6.0 0.00 0.00 0.00 54 1009.4